Погода в Сабаре

Бразилия     19°52′50″S   43°44′05″W
темп.,
°C
ветер,
м/с
пор.,
м/с
влажн.,
%
обл.,
%
осадки,
мм/ч
давл.,
гПа
погр.,
м
27 февраля, сб
сб2700:00+17вюв1299100 2.3 101672
03:00+17всв1198100 3.2 101458
06:00+17в1299100 1.2 101598
09:00+21всв2582100 1.3 1017791
12:00+24всв3559100 0.0 10161179
15:00+25св3448100 0.0 10131421
18:00+20всв1280100 0.0 101381
21:00+17вюв1193100 0.0 101532
28 февраля, вс
вс2800:00+16вюв239496 0.0 1015112
03:00+17в139798 0.3 1014237
06:00+16в1498100 0.0 1015242
09:00+20всв2777100 0.1 1016778
12:00+25всв3655100 0.0 10151344
15:00+26всв355399 0.0 10121553
18:00+21всв2677100 0.1 1012315
21:00+17вюв1392100 0.1 1014124
1 марта, пн
пн100:00+16вюв149786 0.0 1015167
03:00+16вюв129884 0.0 101455
06:00+15вюв129828 0.0 101542
09:00+21всв267164 0.0 1016802
12:00+26всв3454100 0.0 10151382
15:00+25св3458100 0.3 10121362
18:00+21всв267991 0.2 1012296
21:00+17вюв129664 0.2 101545
2 марта, вт
вт200:00+16вюв119798 0.0 101528
03:00+16вюв129795 0.0 101594
06:00+16в1399100 0.1 1016156
09:00+21всв2573100 0.1 1018807
12:00+25св354672 0.0 10171494
15:00+26ссв354745 0.0 10141700
18:00+21св12760 0.0 101336
21:00+17вюв12960 0.0 101629
3 марта, ср
ср300:00+17вюв11982 0.0 101727
03:00+16в119824 0.1 101624
06:00+16в1298100 0.4 101831
09:00+21всв2486100 0.8 1019543
12:00+25св2357100 0.1 10181199
15:00+26св334884 0.1 10141509
18:00+20всв126970 0.0 101424
21:00+17вюв128473 0.0 101724